Wind_Speed
34 34 34 34 34 33 30 27 26 25 25 24 24 23 22 21 20 20 18 17 17 17 17 17 16 15 14 14 14 13 13 12 12 11 11 12 12 12 13 13 13 14 14 14 15 15 15 16 16
37 36 36 36 36 33 30 28 27 27 26 25 25 24 23 23 22 21 20 19 18 18 18 18 17 16 16 15 15 15 14 14 14 13 13 13 13 14 14 14 15 15 15 15 16 16 17 17 18
38 38 38 38 36 33 31 29 29 28 27 26 26 26 25 24 23 22 21 21 20 19 19 19 19 18 18 17 16 16 15 15 15 15 15 14 15 15 15 15 16 16 16 17 17 17 18 19 19
40 40 40 39 36 33 32 31 31 30 29 28 27 27 26 25 24 23 23 22 22 21 20 20 20 19 19 18 18 17 17 17 16 16 16 16 16 16 16 16 16 17 17 18 18 19 20 20 20
41 41 41 39 36 34 33 33 32 31 30 29 28 27 26 25 25 25 24 23 23 22 21 21 21 21 20 20 19 19 18 18 17 17 17 17 17 17 17 17 17 18 18 19 19 20 20 21 21
42 42 41 38 35 34 34 34 33 32 31 30 30 29 27 26 26 25 25 24 24 23 23 23 22 22 21 21 20 20 19 19 19 18 19 19 18 18 18 18 19 19 19 20 20 20 21 21 22
42 42 41 38 36 35 35 35 34 33 32 32 31 30 28 28 27 26 26 25 25 24 24 23 23 23 23 22 21 21 20 20 20 20 20 20 20 20 20 20 20 20 21 21 21 21 22 22 23
43 43 42 39 37 35 36 36 36 35 34 33 32 31 29 29 28 27 27 26 26 25 25 24 24 24 23 23 22 22 22 22 22 22 21 21 21 21 21 21 21 21 22 22 22 22 23 23 24
43 43 41 38 37 36 37 38 37 36 35 34 33 31 31 30 29 28 28 27 27 26 26 25 25 25 24 24 23 23 23 23 23 23 22 23 22 22 22 22 23 23 23 23 23 24 24 25 25
44 43 40 38 37 38 38 39 38 37 36 35 34 33 32 31 30 29 29 28 28 27 26 26 25 25 25 24 24 24 24 24 24 24 24 24 23 23 23 23 24 24 24 24 24 24 25 26 26
44 42 40 39 38 39 40 40 39 38 37 35 35 34 33 32 31 30 30 30 29 28 27 26 26 26 25 25 25 25 25 25 25 24 24 24 24 24 24 24 24 25 25 25 25 25 26 26 27
43 42 41 40 40 40 41 41 40 39 37 36 36 35 34 33 32 32 31 30 29 28 28 27 27 27 26 26 26 26 26 25 25 25 25 25 25 25 25 25 25 25 26 26 26 26 27 28 28
43 42 41 41 41 41 41 42 41 39 38 38 37 36 35 34 34 33 32 31 30 29 29 28 28 27 26 26 26 26 26 26 26 26 26 26 26 26 26 26 26 26 26 26 27 28 29 29 29
43 42 41 42 42 42 42 42 42 39 38 38 37 36 35 35 34 33 32 31 31 30 30 29 29 28 27 27 26 26 26 26 26 26 26 26 27 27 27 27 27 27 27 28 28 29 29 30 31
44 43 43 43 42 42 43 43 41 39 39 38 37 36 36 36 35 34 33 32 32 31 31 31 30 30 29 28 28 27 27 27 26 27 27 27 28 28 28 28 28 28 29 29 29 30 31 31 32
45 46 45 43 43 43 44 42 40 40 39 38 37 37 37 36 35 34 34 33 32 32 31 31 30 30 29 29 28 28 28 28 28 28 28 28 28 28 28 28 29 30 30 30 31 32 33 33 34
48 47 45 44 44 44 45 42 41 41 40 39 38 37 37 37 36 35 34 33 32 32 31 30 30 30 29 29 29 29 29 28 28 28 29 28 28 29 29 30 30 31 31 32 33 34 35 35 36
47 46 44 43 43 44 45 43 42 41 41 40 39 38 38 37 36 35 35 34 33 32 31 31 31 30 30 29 29 29 29 29 29 29 29 29 29 30 30 31 31 32 33 34 34 36 37 37 38
46 45 44 43 44 45 45 44 43 43 42 41 40 39 38 38 37 36 35 35 34 33 32 32 32 32 31 30 30 30 30 30 30 31 30 30 30 31 31 32 33 33 34 35 36 37 38 39 40
46 46 45 44 44 45 46 45 44 44 42 40 40 39 38 38 38 37 36 35 34 33 33 33 33 33 33 32 32 32 32 32 31 31 31 31 32 32 33 33 34 35 36 37 38 39 39 40 42
47 45 44 44 44 45 46 46 45 44 43 42 41 40 39 38 38 37 36 35 35 34 34 34 34 34 34 34 34 33 33 33 33 33 33 33 33 34 34 35 36 37 37 38 39 40 41 41 43
46 44 44 45 45 46 46 46 45 45 44 43 42 40 39 39 38 38 37 36 36 35 35 35 35 35 35 34 34 34 34 34 34 34 34 35 35 35 36 37 38 38 39 39 40 41 42 43 44
44 44 44 45 46 46 46 47 45 45 44 43 42 41 40 40 39 39 38 37 37 37 37 36 36 36 35 35 35 35 35 35 35 36 36 36 37 37 38 38 39 39 40 40 41 42 44 45 46
45 44 45 45 46 48 46 47 46 44 43 42 42 42 41 41 40 40 39 39 38 38 38 37 37 36 36 36 36 36 36 36 36 37 38 38 38 39 39 40 40 41 41 42 43 44 45 47 48
47 46 46 46 48 49 46 47 46 43 42 42 41 41 42 42 41 41 40 40 39 39 38 38 37 37 37 37 37 36 37 37 37 38 38 39 40 40 41 41 42 42 43 44 45 46 47 48 49
46 46 47 47 48 48 46 47 45 44 43 42 42 41 41 41 41 41 40 40 39 39 38 38 38 38 37 37 37 37 38 38 38 39 39 40 40 41 42 42 43 44 45 46 47 47 48 49 49
45 45 45 46 47 47 47 46 45 43 43 42 42 42 41 41 41 41 41 40 39 39 39 39 38 38 38 38 39 39 39 39 39 40 40 41 41 42 43 43 44 44 46 47 47 48 49 49 50
45 44 44 45 46 46 46 46 44 41 41 41 42 42 42 42 42 41 41 41 40 40 40 40 40 40 39 39 39 39 40 40 40 41 42 42 43 44 44 44 44 45 46 47 48 48 49 49 50
45 45 45 44 45 45 45 44 42 40 40 40 40 41 42 42 42 42 41 41 41 41 41 41 41 40 40 40 40 40 41 41 41 42 43 43 44 44 44 44 45 46 46 47 48 48 49 50 51
45 45 45 45 45 44 44 43 41 39 38 38 39 40 41 41 41 41 41 41 41 41 41 41 42 41 41 41 41 42 42 42 43 43 44 44 44 45 45 45 46 46 47 48 48 49 50 51 51
Wind_Direction
233 234 234 235 235 236 237 238 238 238 239 241 243 245 246 247 248 249 251 251 250 250 251 252 253 254 255 256 257 258 259 260 260 262 265 270 275 279 281 283 284 285 287 288 289 289 290 290 290
233 234 235 236 236 237 237 238 238 238 239 240 242 244 245 246 247 248 249 250 249 249 248 250 251 253 254 256 257 258 259 260 261 262 264 267 272 277 280 282 283 283 285 287 287 288 289 289 290
234 234 235 236 237 237 237 238 238 238 239 240 242 243 245 246 247 247 248 249 249 249 248 249 251 253 254 256 256 258 259 261 261 261 263 267 271 274 277 280 281 282 283 285 286 287 288 288 289
233 234 235 236 236 236 237 237 238 239 239 240 241 242 244 246 246 247 247 247 248 249 249 250 251 253 255 256 257 258 259 260 260 261 264 268 270 272 275 278 280 281 281 282 284 286 287 288 289
233 234 235 236 236 236 237 236 237 238 239 239 240 242 243 245 246 246 246 247 248 249 248 249 251 253 255 256 258 258 259 259 260 262 264 268 270 272 275 278 279 281 282 283 283 285 287 287 288
234 234 235 235 235 235 236 236 237 237 238 239 240 241 243 244 245 246 246 247 247 248 249 250 251 253 254 256 257 257 258 259 261 263 266 268 270 273 275 278 279 280 282 283 284 285 286 287 288
233 234 235 234 233 233 234 236 236 236 237 238 240 241 242 243 244 246 246 246 247 248 249 250 251 252 254 255 256 257 258 259 262 264 267 269 271 273 275 277 279 280 282 283 284 285 287 288 289
233 234 234 233 232 232 233 235 235 236 236 237 238 240 241 242 243 244 245 246 247 247 248 249 250 252 253 254 255 257 258 260 262 265 267 269 271 273 275 277 278 280 281 282 283 285 286 288 289
233 234 233 233 232 231 232 234 234 235 236 236 237 239 241 242 243 243 244 245 246 246 247 248 249 251 252 253 254 256 258 260 262 265 267 269 271 273 274 276 278 279 281 282 283 284 286 288 289
233 234 233 232 231 230 232 234 235 235 236 236 237 238 240 241 242 242 243 244 244 246 247 247 249 250 252 253 254 256 258 259 262 264 266 268 271 272 274 276 278 279 280 281 283 285 286 288 289
233 233 232 231 230 230 231 234 235 235 235 236 237 238 239 240 241 241 242 242 243 245 246 247 248 250 251 253 254 256 258 259 261 264 266 268 271 273 274 276 278 279 280 281 283 284 286 288 289
232 232 231 231 231 231 231 233 234 234 234 234 236 237 237 238 239 240 240 241 242 243 245 246 248 250 251 252 254 256 258 259 261 264 266 269 271 273 275 276 278 280 281 281 282 284 286 287 289
231 230 230 230 230 231 231 232 233 233 233 234 235 235 236 236 237 238 239 240 241 242 244 246 247 249 250 252 254 255 257 259 261 264 266 269 271 273 275 277 278 279 280 282 283 285 286 287 288
230 230 230 230 230 231 231 232 233 232 232 233 234 235 236 235 236 238 239 240 241 242 243 244 246 247 248 251 254 257 259 260 262 264 266 269 271 274 276 277 278 279 280 282 284 285 287 288 289
229 230 229 229 230 230 231 232 232 232 233 233 233 234 235 235 236 237 238 239 240 241 243 244 245 247 249 251 254 257 259 260 261 263 266 269 272 274 275 276 278 279 280 282 283 285 287 289 290
228 229 229 229 230 231 232 231 231 232 232 232 233 233 234 234 235 235 236 238 240 241 242 244 246 247 249 251 253 256 258 260 261 264 267 270 272 274 275 276 278 279 280 282 283 285 287 288 290
228 229 229 229 230 231 232 230 230 232 232 232 232 232 233 233 234 235 236 237 239 240 242 244 245 247 249 251 254 256 258 260 262 264 267 270 272 274 275 277 278 279 280 282 284 285 287 288 290
230 231 230 231 231 231 232 230 229 231 232 231 232 232 232 233 234 235 235 237 238 239 241 243 245 247 249 251 254 257 258 260 262 265 268 270 272 274 276 277 279 280 281 283 284 286 287 289 290
231 231 230 230 231 231 231 230 229 230 231 231 231 232 232 232 233 234 235 237 238 240 242 244 246 248 250 252 255 257 258 260 262 265 268 270 272 275 276 277 279 280 282 283 285 286 288 289 290
230 230 229 229 230 231 231 231 230 231 231 231 231 232 232 232 233 234 236 237 239 241 243 244 246 249 251 253 255 257 259 261 263 266 269 271 273 275 277 278 280 281 283 284 285 287 288 290 291
229 230 229 230 231 232 232 231 230 231 231 231 231 231 232 233 233 235 236 238 240 242 244 246 248 250 251 253 255 257 259 261 263 266 269 271 274 276 278 280 281 283 284 285 286 287 289 290 292
229 228 230 230 232 233 233 233 230 230 231 231 231 232 233 234 234 236 237 239 241 243 245 246 249 250 251 253 255 257 259 261 263 266 269 272 274 276 279 281 282 284 285 285 286 288 290 291 293
229 228 230 231 232 234 233 235 230 231 231 231 232 233 234 235 235 237 238 240 241 243 245 247 249 250 252 254 255 257 259 262 264 267 270 272 274 276 279 281 282 284 285 286 287 289 291 292 294
227 228 229 231 232 234 233 235 233 232 232 232 233 234 234 235 236 237 239 240 242 244 246 248 249 251 253 254 256 258 260 262 265 268 270 272 275 277 279 281 282 284 285 286 288 290 291 293 294
226 226 227 229 232 234 233 235 235 233 232 232 234 235 236 237 238 238 239 241 243 245 246 248 249 251 253 255 257 259 261 263 265 268 270 273 275 277 279 281 282 283 285 286 288 290 292 293 294
226 228 230 232 235 236 236 237 235 234 234 233 234 235 237 238 239 239 240 241 243 245 246 248 249 251 253 255 257 258 260 263 266 268 271 273 275 277 279 281 282 283 285 286 288 290 292 293 294
226 227 230 234 237 238 238 238 236 236 236 236 235 236 236 237 238 239 240 241 243 245 246 248 250 251 253 255 257 258 261 263 266 269 271 274 276 278 280 281 283 284 286 288 289 291 292 293 294
227 228 230 232 236 238 238 238 238 238 238 238 237 237 237 238 239 239 240 241 242 244 246 248 250 251 253 254 257 259 262 265 267 270 272 274 276 278 280 282 284 285 287 288 290 292 292 293 294
225 226 229 232 235 237 239 239 239 239 239 239 239 238 238 238 239 240 241 241 243 245 247 248 250 251 253 255 257 260 263 266 268 271 273 275 277 279 280 283 284 286 287 289 291 292 293 294 295
227 228 229 232 234 237 240 240 239 240 240 240 240 239 239 239 240 240 240 241 243 245 247 248 249 251 253 255 257 260 263 266 268 271 273 276 277 278 280 283 284 286 288 289 291 292 293 295 296
Height
5799 5802 5805 5808 5811 5814 5818 5823 5826 5828 5830 5832 5834 5836 5839 5842 5845 5849 5849 5849 5850 5851 5852 5853 5854 5855 5856 5857 5858 5859 5860 5861 5861 5862 5863 5863 5864 5864 5864 5864 5865 5865 5865 5865 5865 5865 5865 5865 5864
5794 5797 5800 5803 5805 5810 5815 5819 5822 5824 5826 5828 5830 5833 5835 5838 5840 5843 5844 5845 5846 5848 5849 5850 5852 5853 5854 5855 5856 5856 5857 5858 5859 5859 5860 5861 5861 5862 5862 5862 5862 5862 5862 5862 5862 5862 5862 5862 5861
5787 5791 5794 5797 5800 5806 5811 5815 5817 5819 5822 5824 5827 5829 5831 5834 5836 5838 5840 5842 5843 5845 5846 5847 5848 5850 5851 5852 5853 5854 5855 5855 5856 5857 5857 5858 5858 5859 5859 5859 5860 5860 5860 5860 5859 5859 5859 5859 5858
5781 5784 5788 5792 5796 5802 5806 5809 5812 5814 5817 5820 5823 5825 5828 5830 5832 5834 5836 5838 5839 5841 5842 5844 5845 5846 5848 5849 5850 5851 5852 5852 5853 5854 5855 5855 5855 5856 5856 5857 5857 5857 5857 5857 5856 5856 5856 5855 5855
5774 5778 5781 5786 5792 5797 5800 5803 5806 5809 5812 5816 5818 5821 5823 5826 5828 5830 5832 5834 5836 5837 5839 5840 5842 5843 5844 5846 5847 5848 5848 5849 5850 5851 5852 5852 5852 5853 5853 5853 5854 5853 5853 5853 5853 5853 5852 5852 5851
5767 5771 5776 5781 5787 5792 5795 5798 5801 5804 5807 5811 5813 5816 5819 5821 5823 5826 5828 5830 5832 5833 5835 5837 5838 5839 5841 5842 5843 5844 5845 5846 5847 5848 5848 5849 5849 5850 5850 5850 5850 5850 5850 5850 5850 5849 5849 5848 5848
5761 5765 5769 5776 5781 5785 5789 5792 5795 5799 5802 5805 5808 5811 5814 5816 5819 5821 5823 5826 5827 5829 5831 5833 5834 5836 5837 5838 5839 5840 5842 5842 5843 5844 5845 5845 5846 5846 5846 5846 5846 5846 5846 5846 5846 5845 5845 5844 5844
5753 5759 5763 5769 5775 5779 5783 5785 5789 5793 5796 5800 5803 5807 5810 5812 5814 5816 5819 5821 5823 5825 5827 5828 5830 5831 5833 5834 5835 5836 5837 5838 5839 5840 5841 5841 5842 5842 5842 5842 5842 5842 5842 5842 5842 5841 5841 5840 5839
5746 5752 5756 5763 5769 5773 5776 5779 5783 5786 5790 5794 5798 5801 5804 5807 5809 5812 5814 5816 5818 5820 5822 5824 5825 5827 5829 5830 5831 5832 5833 5834 5835 5836 5837 5837 5838 5838 5838 5838 5838 5838 5838 5837 5837 5837 5836 5835 5835
5738 5744 5752 5757 5761 5766 5769 5772 5776 5780 5784 5788 5792 5795 5798 5801 5804 5807 5809 5811 5813 5815 5817 5819 5821 5822 5824 5825 5827 5828 5829 5830 5831 5832 5832 5833 5833 5833 5834 5834 5834 5833 5833 5833 5832 5832 5831 5831 5830
5731 5738 5745 5749 5753 5758 5761 5765 5769 5773 5778 5783 5786 5789 5792 5795 5798 5801 5804 5806 5808 5811 5813 5814 5816 5818 5819 5821 5822 5823 5824 5825 5826 5827 5828 5828 5829 5829 5829 5829 5829 5829 5828 5828 5828 5827 5826 5826 5825
5725 5731 5736 5741 5746 5750 5754 5758 5762 5767 5772 5776 5779 5783 5786 5789 5792 5795 5798 5800 5803 5805 5807 5809 5811 5813 5814 5816 5817 5818 5820 5821 5821 5822 5823 5824 5824 5824 5824 5824 5824 5824 5823 5823 5822 5822 5821 5820 5819
5717 5723 5728 5733 5737 5742 5746 5751 5755 5760 5765 5769 5772 5776 5780 5783 5786 5789 5792 5795 5798 5800 5802 5804 5806 5808 5809 5811 5812 5813 5814 5815 5816 5817 5818 5818 5819 5819 5819 5819 5819 5818 5818 5818 5817 5816 5815 5814 5813
5709 5715 5720 5725 5729 5734 5739 5743 5748 5754 5758 5762 5766 5770 5773 5777 5780 5783 5786 5789 5792 5794 5797 5799 5801 5802 5804 5805 5807 5808 5809 5810 5811 5812 5813 5813 5814 5814 5814 5814 5813 5813 5812 5812 5811 5810 5810 5808 5807
5700 5706 5711 5717 5721 5726 5731 5736 5742 5747 5750 5755 5759 5763 5767 5770 5774 5777 5780 5783 5786 5788 5791 5793 5795 5797 5799 5800 5801 5803 5804 5805 5806 5807 5807 5808 5808 5808 5808 5808 5808 5807 5807 5806 5805 5804 5803 5802 5800
5691 5696 5703 5709 5713 5718 5724 5730 5735 5738 5743 5748 5752 5756 5760 5764 5768 5771 5774 5777 5780 5783 5785 5787 5789 5791 5793 5794 5796 5797 5798 5799 5800 5801 5802 5802 5802 5802 5802 5802 5802 5801 5800 5800 5799 5798 5796 5795 5793
5681 5688 5695 5702 5705 5710 5715 5722 5727 5731 5735 5740 5745 5749 5753 5757 5761 5765 5768 5771 5774 5776 5779 5781 5783 5785 5787 5788 5790 5791 5792 5793 5794 5795 5795 5796 5796 5796 5796 5796 5795 5794 5794 5793 5792 5791 5789 5788 5786
5675 5682 5688 5693 5698 5702 5707 5714 5719 5722 5727 5733 5737 5742 5746 5750 5754 5758 5761 5764 5767 5770 5773 5775 5777 5779 5781 5782 5784 5785 5786 5787 5788 5789 5789 5790 5790 5790 5790 5789 5788 5788 5787 5786 5784 5783 5781 5779 5778
5668 5674 5680 5685 5689 5693 5698 5704 5710 5714 5719 5725 5730 5734 5739 5743 5747 5750 5754 5757 5761 5764 5767 5769 5771 5773 5775 5776 5778 5779 5780 5781 5782 5782 5783 5783 5783 5783 5783 5782 5781 5780 5779 5778 5777 5775 5773 5771 5768
5658 5664 5670 5676 5680 5684 5690 5695 5702 5706 5712 5718 5722 5727 5732 5736 5740 5744 5747 5751 5754 5757 5760 5763 5765 5767 5769 5770 5771 5773 5774 5775 5776 5776 5777 5776 5776 5776 5776 5775 5774 5773 5772 5770 5768 5766 5764 5762 5759
5650 5657 5663 5668 5672 5675 5681 5687 5693 5699 5704 5709 5714 5719 5724 5729 5733 5737 5741 5744 5747 5751 5753 5756 5758 5760 5761 5763 5764 5766 5767 5768 5769 5769 5769 5769 5769 5769 5768 5767 5766 5765 5763 5762 5760 5757 5755 5753 5750
5643 5649 5654 5658 5662 5667 5672 5677 5685 5690 5695 5701 5707 5712 5717 5721 5725 5729 5733 5737 5740 5743 5746 5748 5750 5752 5754 5756 5757 5758 5760 5761 5761 5762 5762 5762 5762 5761 5760 5759 5758 5756 5755 5753 5751 5748 5746 5743 5740
5635 5641 5645 5649 5653 5658 5663 5668 5677 5681 5687 5694 5700 5704 5709 5713 5718 5722 5725 5729 5732 5735 5738 5740 5743 5745 5747 5748 5750 5751 5752 5753 5754 5754 5754 5754 5754 5753 5752 5751 5749 5747 5746 5744 5741 5739 5736 5733 5729
5625 5631 5635 5639 5643 5648 5656 5660 5667 5674 5681 5687 5692 5696 5701 5705 5709 5713 5717 5721 5724 5727 5730 5732 5735 5737 5739 5740 5742 5743 5744 5745 5746 5746 5746 5746 5745 5744 5743 5742 5740 5738 5736 5734 5732 5729 5726 5722 5718
5616 5622 5626 5629 5632 5639 5648 5650 5659 5667 5673 5678 5684 5688 5693 5697 5701 5705 5709 5712 5716 5718 5722 5724 5727 5729 5730 5732 5734 5735 5736 5737 5737 5738 5737 5737 5736 5736 5734 5733 5731 5729 5726 5724 5721 5718 5715 5711 5707
5608 5614 5619 5623 5627 5634 5638 5642 5652 5659 5664 5670 5675 5679 5684 5688 5692 5696 5700 5704 5707 5710 5713 5716 5718 5720 5722 5724 5725 5727 5728 5728 5729 5729 5728 5728 5727 5726 5725 5723 5721 5719 5716 5714 5711 5707 5704 5700 5696
5599 5605 5612 5616 5620 5625 5630 5636 5644 5650 5656 5661 5666 5671 5675 5679 5683 5687 5691 5695 5698 5701 5704 5707 5709 5712 5713 5715 5717 5718 5718 5719 5719 5719 5719 5718 5717 5716 5714 5712 5710 5708 5705 5702 5699 5696 5692 5688 5684
5592 5599 5603 5607 5611 5616 5622 5629 5637 5643 5647 5653 5658 5662 5666 5670 5674 5678 5682 5686 5689 5693 5695 5698 5700 5702 5704 5706 5707 5709 5709 5710 5710 5710 5709 5708 5707 5706 5704 5702 5700 5697 5694 5691 5688 5685 5681 5677 5673
5584 5589 5594 5599 5604 5609 5614 5624 5630 5635 5639 5644 5648 5653 5657 5661 5665 5669 5673 5677 5680 5683 5686 5689 5691 5693 5695 5697 5698 5699 5700 5700 5700 5700 5699 5698 5697 5695 5694 5692 5689 5687 5684 5681 5677 5674 5670 5666 5661
5576 5582 5587 5593 5597 5602 5608 5617 5621 5626 5630 5634 5639 5644 5648 5652 5656 5660 5664 5668 5671 5674 5677 5679 5681 5683 5685 5687 5688 5689 5690 5690 5690 5690 5689 5688 5686 5685 5683 5681 5679 5676 5673 5670 5666 5663 5659 5654 5650